SCP
0 0 0 0 0 0 -0 -0 0 -0 -0 -0 0 0 0 -0 0 -0 -0 -0 0 0 0 0 0 0 0 0 0 0 0 -0 -0 -0 -0 -0 -0 -0 -0 -0 -0 -0 -0 -0 -0 -0 -0 -0 -0
0 0 0 0 0 0 0 0 -0 -0 -0 -0 -0 0 0 -0 0 -0 0 -0 -0 -0 0 0 0 0 0 0 0 0 0 -0 -0 -0 -0 -0 -0 -0 -0 -0 -0 -0 -0 -0 -0 -0 -0 -0 -0
0 0 0 0 0 0 0 0 0 0 0 -0 -0 0 0 -0 -0 0 -0 -0 -0 -0 -0 -0 -0 -0 -0 0 0 0 0 0 -0 -0 -0 -0 -0 -0 -0 -0 -0 -0 -0 -0 -0 -0 -0 -0 -0
0 0 0 0 0 0 0 0 0 0 0 0 0 -0 0 0 -0 -0 -0 -0 -0 -0 -0 -0 -0 -0 -0 -0 0 0 -0 -0 -0 -0 -0 -0 -0 -0 -0 -0 -0 -0 -0 -0 -0 -0 -0 -0 -0
0 0 0 0 0 0 0 0 0 -0 0 -0 -0 -0 -0 0 0 -0 -0 -0 -0 -0 -0 -0 -0 -0 -0 -0 -0 -0 0 -0 -0 -0 -0 -0 -0 -0 -0 -0 -0 -0 -0 -0 -0 -0 -0 -0 -0
0 0 0 0 0 0 0 0 0 0 0 0 -0 -0 -0 0 -0 -0 -0 -0 -0 -0 -0 -0 -0 -0 -0 -0 -0 -0 -0 -0 -0 -0 -0 -0 -0 -0 -0 -0 -0 -0 -0 -0 -0 -0 -0 -0 -0
0 0 0 0 0 0 0 0 0 0 0 0 0 -0 -0 -0 -0 -0 -0 -0 -0 -0 -0 -0 -0 -0 -0 -0 -0 -0 -0 -0 -0 -0 -0 -0 -0 -0 -0 -0 -0 -0 -0 -0 -0 -0 -0 -0 -0
0 0 0 0 0 0 0 0 0 0 0 0 0 0 -0 -0 -0 -0 -0 -0 -0 -0 -0 -0 -0 -0 -0 -0 -0 -0 -0 -0 -0 -0 -0 -0 -0 -0 -0 -0 -0 -0 -0 -0 -0 -0 -0 -0 -0
0 0 0 0 0 0 0 0 0 0 0 0 0 0 0 -0 -0 -0 -0 -0 -0 -0 -0 -0 -0 -0 -0 -0 -0 0 0 -0 -0 -0 -0 -0 -0 -0 -0 -0 -0 -0 -0 -0 -0 0 0 0 0
0 0 0 0 0 0 0 0 0 0 0 0 0 0 0 -0 -0 -0 -0 -0 -0 -0 -0 -0 -0 -0 -0 -0 -0 -0 -0 -0 -0 -0 -0 -0 -0 -0 -0 -0 -0 -0 -0 0 0 0 0 0 0
0 0 0 0 0 0 0 0 0 0 0 0 -0 0 0 -0 -0 -0 -0 -0 -0 -0 -0 -0 -0 -0 -0 -0 -0 0 0 -0 -0 -0 -0 -0 -0 -0 0 0 0 0 0 0 0 0 0 0 0
0 0 0 0 0 0 0 0 0 0 0 0 0 0 -0 -0 -0 -0 -0 -0 -0 -0 -0 -0 -0 -0 -0 -0 -0 -0 -0 -0 -0 -0 -0 0 0 0 0 0 0 0 0 0 0 0 0 0 0
0 0 0 0 0 0 0 0 0 0 0 0 0 0 -0 -0 -0 -0 -0 -0 -0 -0 -0 -0 -0 -0 -0 -0 -0 0 0 0 0 0 -0 0 0 0 0 0 0 0 0 0 0 0 0 0 0
0 0 0 0 0 0 0 0 0 0 0 0 0 0 0 0 -0 0 0 -0 -0 -0 -0 -0 -0 -0 -0 -0 -0 -0 0 0 0 0 0 0 0 0 0 0 0 0 0 0 0 0 0 0 0
0 0 0 0 0 0 0 0 0 0 0 0 0 0 0 0 0 0 0 0 -0 -0 -0 -0 -0 -0 -0 -0 -0 0 -0 0 0 0 0 0 0 0 0 0 0 0 0 0 0 0 0 0 0
0 0 0 0 0 0 0 0 0 0 0 0 0 0 0 0 0 0 0 0 0 0 0 -0 0 -0 -0 -0 0 0 0 -0 0 0 0 -0 0 0 0 0 0 0 0 0 0 0 0 0 0
0 0 0 0 0 0 0 0 0 0 0 0 0 0 0 0 0 0 0 0 0 0 0 0 -0 -0 -0 0 0 0 0 0 0 0 0 0 0 0 0 0 0 0 0 0 0 0 0 0 0
0 0 0 0 0 0 0 0 0 0 0 0 0 0 0 0 0 0 0 0 0 0 0 0 0 0 0 0 0 0 0 0 0 0 0 0 0 0 0 0 0 0 0 0 0 0 0 0 0
0 0 0 0 0 0 0 0 0 0 0 0 0 0 0 0 0 0 0 0 0 0 0 0 0 0 0 0 0 0 0 0 0 0 0 0 0 0 0 0 0 0 0 0 0 0 0 0 0
0 0 0 0 0 0 0 0 0 0 0 0 0 0 0 0 0 0 0 0 0 0 0 0 0 0 0 0 0 0 0 0 0 0 0 0 0 0 0 0 0 0 0 0 0 0 0 0 0
0 0 0 0 0 0 0 0 0 0 0 0 0 0 0 0 0 0 0 0 0 0 0 0 0 0 0 0 0 0 0 0 0 0 0 0 0 0 0 0 0 0 0 0 0 0 0 0 0
0 0 0 0 0 0 0 0 0 0 0 0 0 0 0 0 0 0 0 0 0 0 0 0 0 0 0 0 0 0 0 0 0 0 0 0 0 0 0 0 0 0 0 0 0 0 0 0 0
0 0 0 0 0 0 0 0 0 0 0 0 0 0 0 0 0 0 0 0 0 0 0 0 0 0 0 0 0 0 0 0 0 0 0 0 0 0 0 0 0 0 0 0 0 0 0 0 0
0 0 0 0 0 0 0 0 0 0 0 0 0 0 0 0 0 0 0 0 0 0 0 0 0 0 0 0 0 0 0 0 0 0 0 0 0 0 0 0 0 0 0 0 0 0 0 0 0
0 0 0 0 0 0 0 0 0 0 0 0 0 0 0 0 0 0 0 0 0 0 0 0 0 0 0 0 0 0 0 0 0 0 0 0 0 0 0 0 0 0 0 0 0 0 0 0 0
0 0 0 0 0 0 0 0 0 0 0 0 0 0 0 0 0 0 0 0 0 0 0 0 0 0 0 0 0 0 0 0 0 0 0 0 0 0 0 0 0 0 0 0 0 0 0 0 0
0 0 0 0 0 0 0 0 0 0 0 0 0 0 0 0 0 0 0 0 0 0 0 0 0 0 0 0 0 0 0 0 0 0 0 0 0 0 0 0 0 0 0 0 0 0 0 0 0
0 0 0 0 0 0 0 0 0 0 0 0 0 0 0 0 0 0 0 0 0 0 0 0 0 0 0 0 0 0 0 0 0 0 0 0 0 0 0 0 0 0 0 0 0 0 0 0 0
0 0 0 0 0 0 0 0 0 0 0 0 0 0 0 0 0 0 0 0 0 0 0 0 0 0 0 0 0 0 0 0 0 0 0 0 0 0 0 0 0 0 0 0 0 0 0 0 0
0 0 0 0 0 0 0 0 0 0 0 0 0 0 0 0 0 0 0 0 0 0 0 0 0 0 0 0 0 0 0 0 0 0 0 0 0 0 0 0 0 0 0 0 0 0 0 0 0
Wind_Speed_500mb
8 6 6 2 8 5 8 8 0 14 14 6 20 6 4 4 3 6 12 37 37 37 34 27 20 17 16 17 18 20 23 19 15 18 23 30 33 32 37 34 27 27 33 32 32 30 27 25 23
10 10 6 2 7 9 10 7 13 14 14 18 13 10 5 5 3 2 26 37 42 36 34 26 22 18 17 17 18 19 21 21 18 18 23 27 31 30 35 31 24 29 31 33 32 29 28 25 23
13 13 6 5 4 7 10 12 16 12 20 11 10 3 3 4 5 17 29 41 43 35 33 27 23 19 17 17 16 17 19 25 15 13 22 21 25 27 32 32 28 30 33 32 33 31 28 27 26
14 8 4 8 9 5 5 17 17 24 6 6 6 8 3 7 11 19 38 43 41 36 31 28 25 21 19 17 16 17 20 25 14 7 20 20 20 21 27 35 24 32 25 32 33 30 30 28 30
16 6 5 6 7 4 2 12 24 22 13 12 7 6 5 7 17 21 37 45 40 35 32 30 26 23 20 18 16 16 20 22 15 5 17 17 18 18 23 28 27 28 24 27 34 31 30 30 33
5 5 9 13 9 4 4 15 19 14 10 10 9 10 6 14 21 26 36 40 38 35 34 32 28 24 21 19 17 16 18 20 17 6 12 15 16 16 21 22 26 22 22 26 28 29 28 30 29
6 5 9 12 14 9 10 20 15 14 11 12 6 8 6 22 28 29 38 36 38 36 35 34 30 28 24 20 18 17 18 19 14 7 8 11 13 15 17 16 19 22 23 23 25 23 22 22 22
6 4 11 6 15 9 18 20 7 12 10 9 9 5 6 26 31 34 39 36 38 37 37 36 33 31 28 25 21 19 18 16 13 8 7 7 9 12 14 13 16 19 19 19 19 19 18 17 15
7 5 10 13 15 12 17 15 13 12 8 9 13 4 6 32 34 40 46 43 43 42 41 39 37 34 31 28 25 22 19 16 13 9 8 6 8 11 13 13 14 15 16 16 15 15 14 12 11
4 5 12 8 12 11 22 15 21 14 15 11 12 17 12 34 37 43 51 53 50 48 48 45 41 38 35 32 28 26 23 19 17 13 11 9 8 11 13 13 12 13 15 16 14 12 11 10 10
6 5 7 10 7 10 19 11 13 12 11 20 24 24 23 35 40 42 46 49 50 48 48 48 46 43 40 37 34 31 28 25 22 18 16 13 11 13 15 15 13 13 14 13 12 9 8 8 8
8 4 6 7 8 10 20 12 10 17 1 8 22 19 30 34 40 42 43 47 47 49 46 47 48 47 45 42 39 35 32 30 26 23 20 17 14 15 17 16 15 16 14 12 8 6 6 6 8
5 9 8 9 11 11 18 7 4 16 17 17 10 20 30 35 37 39 38 41 45 46 45 45 47 49 49 49 46 42 39 35 31 27 24 21 19 18 20 21 19 17 14 12 8 6 5 5 7
9 12 14 8 7 6 5 5 4 6 17 27 29 24 25 34 38 38 43 43 45 44 43 41 44 45 47 50 50 47 44 41 37 34 30 27 24 22 23 24 22 20 17 14 13 10 9 8 9
18 9 7 6 5 4 5 9 12 12 16 16 18 28 29 29 39 45 40 43 42 45 44 44 44 45 45 45 49 48 46 46 45 41 37 34 31 28 28 28 26 24 22 19 17 16 14 14 16
7 5 10 4 6 2 9 22 6 11 10 26 23 18 32 34 36 39 44 45 45 47 49 47 48 49 49 48 45 44 45 40 40 51 47 42 38 35 34 33 32 30 28 25 23 20 22 23 24
0 10 9 4 3 4 8 9 7 8 3 8 16 22 29 29 34 40 43 47 49 50 53 54 54 56 55 54 52 48 47 46 42 39 45 48 46 43 41 39 40 37 34 34 31 30 31 32 34
12 9 4 8 6 1 6 26 11 13 16 17 19 19 22 22 24 26 30 38 46 51 56 59 59 60 60 62 62 59 56 53 54 49 46 43 48 51 48 46 43 47 44 43 44 38 43 39 38
9 8 11 4 4 7 16 26 24 24 25 27 31 33 34 34 30 31 33 39 47 51 57 66 68 64 68 70 74 72 68 64 62 58 55 51 50 53 56 53 52 53 53 54 53 52 48 50 49
10 10 7 4 2 5 3 24 26 22 23 32 30 27 28 33 30 36 39 42 50 60 63 64 71 70 71 73 72 76 72 69 67 64 65 64 53 58 53 59 60 59 61 64 63 64 63 63 63
6 14 8 4 7 4 9 16 11 5 15 20 17 19 20 24 22 20 24 32 42 42 56 66 68 69 71 73 70 72 70 73 74 70 68 69 59 60 61 62 62 68 71 71 72 72 75 76 71
15 15 10 12 4 7 6 12 8 7 17 8 6 6 7 8 5 2 2 10 22 36 41 48 56 61 67 66 70 73 76 74 77 75 71 67 59 63 65 68 67 77 74 80 80 84 86 85 84
6 11 8 5 6 2 8 10 6 3 14 12 10 6 8 10 12 13 16 15 9 8 17 27 37 40 51 60 63 66 70 73 71 65 63 67 59 63 61 71 66 70 75 80 92 96 93 96 99
29 15 13 7 2 10 16 13 9 12 10 10 5 5 12 16 17 18 19 19 17 14 8 6 15 22 33 44 49 56 63 66 68 69 66 65 62 58 61 58 63 73 76 76 82 89 103 111 106
6 26 6 5 8 11 3 8 18 8 8 7 6 10 15 22 22 22 21 21 20 18 16 11 8 9 17 29 37 41 50 51 57 62 64 62 62 62 60 57 60 64 71 73 79 89 92 95 105
22 18 12 14 10 3 4 16 9 2 3 8 13 14 22 26 26 25 25 24 23 22 21 18 15 11 10 15 24 33 41 49 56 56 57 61 63 60 55 56 58 58 68 76 81 82 96 93 97
13 17 5 14 2 2 11 10 19 12 9 18 18 19 22 28 28 29 29 28 26 24 21 19 16 13 9 5 9 18 28 35 44 51 53 53 53 52 49 47 53 55 57 63 62 70 79 82 84
13 25 8 7 12 13 14 12 19 13 23 21 23 25 23 30 31 30 28 27 25 24 22 20 18 15 11 7 1 6 12 19 27 33 39 43 44 45 46 45 50 53 48 40 50 54 61 65 65
12 13 8 7 8 12 8 13 9 25 34 34 34 30 29 33 30 28 27 24 20 18 15 14 13 12 9 8 7 7 10 13 17 20 25 32 37 43 45 47 50 46 47 48 53 55 57 60 62
18 28 34 17 17 8 5 17 1 10 38 45 39 33 35 34 32 28 25 22 17 12 9 5 4 3 5 6 6 6 5 6 9 13 17 19 22 26 31 34 37 42 48 54 58 60 62 64 65
Wind_Direction_500mb
238 215 203 222 229 237 130 137 120 138 154 140 146 179 184 38 302 20 161 167 169 167 165 163 150 142 128 114 110 109 115 115 95 76 82 96 109 102 98 99 100 92 97 101 107 108 112 113 114
207 188 181 205 235 183 135 146 173 127 127 132 139 139 171 99 145 176 153 164 164 166 165 163 153 145 131 117 111 111 115 121 92 84 80 93 105 109 108 103 105 95 92 96 103 106 105 104 104
191 181 194 215 220 164 137 176 145 118 129 155 152 179 141 102 158 153 166 165 163 169 167 162 157 150 140 127 118 113 112 117 109 80 72 83 98 106 103 105 91 88 95 91 92 96 99 100 101
171 154 70 243 163 98 69 152 151 143 153 174 153 149 117 157 138 160 166 167 163 170 171 167 163 157 148 138 130 122 122 119 133 81 68 76 94 104 98 103 101 89 88 97 95 93 94 98 102
177 128 196 162 130 107 131 148 161 163 155 163 168 140 113 187 163 159 168 170 170 170 172 171 167 163 156 150 143 132 132 129 138 119 61 77 94 99 94 112 118 117 112 98 102 96 97 100 102
165 151 193 172 135 129 141 164 161 166 161 152 180 148 128 179 172 166 170 174 174 177 174 176 171 170 165 162 155 145 142 131 155 149 77 78 95 99 96 109 123 119 110 107 110 111 113 113 107
213 207 155 150 137 151 150 161 183 173 172 184 173 162 154 174 172 171 173 178 180 184 181 181 179 175 172 171 166 159 155 150 165 150 97 78 94 99 99 108 119 112 104 107 109 111 118 110 107
187 127 140 163 168 134 148 164 182 175 174 177 169 179 158 185 176 171 175 178 188 191 190 188 187 183 181 180 176 172 170 170 169 166 126 97 104 107 110 117 120 120 113 112 108 108 114 113 105
180 175 166 164 170 142 160 178 159 171 143 181 194 147 179 179 179 177 182 186 191 196 199 197 195 194 190 191 187 183 184 180 181 178 160 151 146 136 133 132 131 129 123 117 113 110 111 114 117
205 194 176 174 166 155 173 187 160 169 167 201 207 210 188 187 187 190 190 191 195 199 201 203 203 203 201 200 199 197 195 195 196 194 191 188 176 163 160 150 147 139 130 129 123 123 127 137 149
155 208 160 183 164 143 164 191 171 179 196 203 212 205 206 193 195 201 204 204 201 203 208 208 208 210 209 209 208 208 206 205 204 204 205 205 201 187 182 172 163 150 139 139 134 132 141 150 156
166 99 128 139 166 146 158 152 187 206 225 171 210 197 215 208 207 212 211 211 209 207 210 214 214 215 215 216 216 217 218 215 213 213 213 213 215 206 197 190 179 170 163 161 155 148 152 150 150
152 142 111 134 143 122 144 153 215 242 232 238 208 208 218 219 220 219 218 218 218 215 211 215 220 220 220 220 220 221 222 223 222 219 219 218 218 217 208 203 196 190 188 185 192 187 188 173 163
137 130 128 137 141 112 163 142 210 216 233 247 243 231 221 223 224 222 220 222 223 223 218 216 218 222 223 226 226 226 227 228 228 225 223 222 221 220 215 211 209 207 206 210 208 213 214 211 198
128 104 130 141 156 105 122 247 224 242 235 257 256 230 226 226 226 229 235 232 232 230 226 222 223 223 225 227 228 230 229 233 235 231 227 224 222 221 216 215 215 217 218 220 227 229 226 225 221
112 129 185 112 179 137 188 246 212 258 246 247 245 231 229 228 232 231 232 237 236 238 234 229 227 229 230 230 230 230 230 233 236 235 230 227 225 222 219 216 217 218 219 224 231 236 240 239 236
165 182 202 173 234 149 218 249 148 192 145 268 258 243 240 238 239 239 239 239 237 239 241 237 233 233 234 234 235 234 231 236 238 239 236 229 228 226 225 223 225 224 231 236 241 244 250 244 244
167 173 190 210 174 204 206 253 236 221 267 259 263 251 238 234 237 243 242 245 243 243 242 242 240 238 237 239 240 238 235 235 238 240 243 241 233 229 229 230 235 236 238 243 244 241 247 247 249
142 145 176 130 85 217 234 264 266 269 271 252 248 249 253 259 257 255 248 249 247 242 239 239 239 236 236 235 239 240 239 237 238 240 243 245 241 236 232 236 237 239 243 245 250 250 251 249 257
153 144 166 80 45 240 293 276 271 253 253 255 254 247 259 265 274 270 261 251 246 244 238 236 238 236 237 238 240 244 246 243 247 242 244 243 245 241 244 242 241 243 245 246 248 253 252 253 249
176 196 177 194 178 132 307 268 276 242 249 261 260 258 252 251 259 261 254 247 236 239 236 235 237 237 236 237 238 238 246 249 243 253 248 244 250 243 244 249 248 246 247 248 250 252 251 253 251
205 203 167 156 152 260 0 287 277 254 277 239 191 145 158 162 159 114 217 242 236 235 236 237 236 238 235 233 230 232 234 236 241 247 249 255 250 251 247 248 256 257 251 249 254 254 254 251 251
206 145 119 87 118 319 187 255 252 348 263 186 166 152 163 147 130 102 91 89 105 201 233 235 231 236 234 230 232 233 235 239 242 247 253 255 254 249 252 255 252 261 259 258 256 256 257 255 253
147 108 74 78 107 251 211 227 228 214 233 149 138 155 156 143 130 112 96 88 84 82 95 185 221 231 230 226 227 231 237 237 241 246 252 253 259 258 255 256 263 260 264 267 268 267 263 262 256
173 157 124 200 203 248 68 209 258 222 198 182 156 150 149 139 130 120 111 103 99 96 92 95 125 188 211 219 223 224 230 233 243 247 251 255 258 260 264 265 265 266 265 272 276 273 276 271 268
180 189 172 193 198 200 92 229 248 116 267 207 141 144 138 132 130 121 111 102 96 91 91 93 97 110 148 195 215 225 229 230 236 243 247 251 254 259 264 264 267 268 275 275 278 273 277 278 272
178 213 128 102 49 229 208 250 264 215 168 151 139 142 135 134 130 122 113 104 93 84 82 80 82 87 100 142 199 217 225 229 231 237 241 247 255 258 258 260 266 269 274 272 274 276 279 281 281
201 143 157 219 192 231 219 254 235 191 183 163 157 153 145 135 130 122 113 102 93 86 76 71 65 58 50 42 347 238 247 250 248 245 243 245 249 253 256 257 262 266 265 271 273 272 280 278 281
155 185 194 192 202 218 238 244 225 208 180 170 164 160 153 141 133 127 120 114 104 98 94 81 72 57 38 14 346 307 282 271 266 263 259 255 253 253 256 257 261 266 267 273 272 273 275 275 276
218 211 187 198 198 252 304 252 200 208 167 166 166 166 160 153 148 141 135 131 130 123 110 101 75 54 16 357 345 339 320 293 278 275 272 267 264 261 262 265 267 269 271 272 273 274 274 275 275
Wind_Speed_850mb
8 6 6 2 8 5 8 8 0 14 14 6 20 6 4 4 3 6 12 37 37 37 34 27 20 17 16 17 18 20 23 19 15 18 23 30 33 32 37 34 27 27 33 32 32 30 27 25 23
10 10 6 2 7 9 10 7 13 14 14 18 13 10 5 5 3 2 26 37 42 36 34 26 22 18 17 17 18 19 21 21 18 18 23 27 31 30 35 31 24 29 31 33 32 29 28 25 23
13 13 6 5 4 7 10 12 16 12 20 11 10 3 3 4 5 17 29 41 43 35 33 27 23 19 17 17 16 17 19 25 15 13 22 21 25 27 32 32 28 30 33 32 33 31 28 27 26
14 8 4 8 9 5 5 17 17 24 6 6 6 8 3 7 11 19 38 43 41 36 31 28 25 21 19 17 16 17 20 25 14 7 20 20 20 21 27 35 24 32 25 32 33 30 30 28 30
16 6 5 6 7 4 2 12 24 22 13 12 7 6 5 7 17 21 37 45 40 35 32 30 26 23 20 18 16 16 20 22 15 5 17 17 18 18 23 28 27 28 24 27 34 31 30 30 33
5 5 9 13 9 4 4 15 19 14 10 10 9 10 6 14 21 26 36 40 38 35 34 32 28 24 21 19 17 16 18 20 17 6 12 15 16 16 21 22 26 22 22 26 28 29 28 30 29
6 5 9 12 14 9 10 20 15 14 11 12 6 8 6 22 28 29 38 36 38 36 35 34 30 28 24 20 18 17 18 19 14 7 8 11 13 15 17 16 19 22 23 23 25 23 22 22 22
6 4 11 6 15 9 18 20 7 12 10 9 9 5 6 26 31 34 39 36 38 37 37 36 33 31 28 25 21 19 18 16 13 8 7 7 9 12 14 13 16 19 19 19 19 19 18 17 15
7 5 10 13 15 12 17 15 13 12 8 9 13 4 6 32 34 40 46 43 43 42 41 39 37 34 31 28 25 22 19 16 13 9 8 6 8 11 13 13 14 15 16 16 15 15 14 12 11
4 5 12 8 12 11 22 15 21 14 15 11 12 17 12 34 37 43 51 53 50 48 48 45 41 38 35 32 28 26 23 19 17 13 11 9 8 11 13 13 12 13 15 16 14 12 11 10 10
6 5 7 10 7 10 19 11 13 12 11 20 24 24 23 35 40 42 46 49 50 48 48 48 46 43 40 37 34 31 28 25 22 18 16 13 11 13 15 15 13 13 14 13 12 9 8 8 8
8 4 6 7 8 10 20 12 10 17 1 8 22 19 30 34 40 42 43 47 47 49 46 47 48 47 45 42 39 35 32 30 26 23 20 17 14 15 17 16 15 16 14 12 8 6 6 6 8
5 9 8 9 11 11 18 7 4 16 17 17 10 20 30 35 37 39 38 41 45 46 45 45 47 49 49 49 46 42 39 35 31 27 24 21 19 18 20 21 19 17 14 12 8 6 5 5 7
9 12 14 8 7 6 5 5 4 6 17 27 29 24 25 34 38 38 43 43 45 44 43 41 44 45 47 50 50 47 44 41 37 34 30 27 24 22 23 24 22 20 17 14 13 10 9 8 9
18 9 7 6 5 4 5 9 12 12 16 16 18 28 29 29 39 45 40 43 42 45 44 44 44 45 45 45 49 48 46 46 45 41 37 34 31 28 28 28 26 24 22 19 17 16 14 14 16
7 5 10 4 6 2 9 22 6 11 10 26 23 18 32 34 36 39 44 45 45 47 49 47 48 49 49 48 45 44 45 40 40 51 47 42 38 35 34 33 32 30 28 25 23 20 22 23 24
0 10 9 4 3 4 8 9 7 8 3 8 16 22 29 29 34 40 43 47 49 50 53 54 54 56 55 54 52 48 47 46 42 39 45 48 46 43 41 39 40 37 34 34 31 30 31 32 34
12 9 4 8 6 1 6 26 11 13 16 17 19 19 22 22 24 26 30 38 46 51 56 59 59 60 60 62 62 59 56 53 54 49 46 43 48 51 48 46 43 47 44 43 44 38 43 39 38
9 8 11 4 4 7 16 26 24 24 25 27 31 33 34 34 30 31 33 39 47 51 57 66 68 64 68 70 74 72 68 64 62 58 55 51 50 53 56 53 52 53 53 54 53 52 48 50 49
10 10 7 4 2 5 3 24 26 22 23 32 30 27 28 33 30 36 39 42 50 60 63 64 71 70 71 73 72 76 72 69 67 64 65 64 53 58 53 59 60 59 61 64 63 64 63 63 63
6 14 8 4 7 4 9 16 11 5 15 20 17 19 20 24 22 20 24 32 42 42 56 66 68 69 71 73 70 72 70 73 74 70 68 69 59 60 61 62 62 68 71 71 72 72 75 76 71
15 15 10 12 4 7 6 12 8 7 17 8 6 6 7 8 5 2 2 10 22 36 41 48 56 61 67 66 70 73 76 74 77 75 71 67 59 63 65 68 67 77 74 80 80 84 86 85 84
6 11 8 5 6 2 8 10 6 3 14 12 10 6 8 10 12 13 16 15 9 8 17 27 37 40 51 60 63 66 70 73 71 65 63 67 59 63 61 71 66 70 75 80 92 96 93 96 99
29 15 13 7 2 10 16 13 9 12 10 10 5 5 12 16 17 18 19 19 17 14 8 6 15 22 33 44 49 56 63 66 68 69 66 65 62 58 61 58 63 73 76 76 82 89 103 111 106
6 26 6 5 8 11 3 8 18 8 8 7 6 10 15 22 22 22 21 21 20 18 16 11 8 9 17 29 37 41 50 51 57 62 64 62 62 62 60 57 60 64 71 73 79 89 92 95 105
22 18 12 14 10 3 4 16 9 2 3 8 13 14 22 26 26 25 25 24 23 22 21 18 15 11 10 15 24 33 41 49 56 56 57 61 63 60 55 56 58 58 68 76 81 82 96 93 97
13 17 5 14 2 2 11 10 19 12 9 18 18 19 22 28 28 29 29 28 26 24 21 19 16 13 9 5 9 18 28 35 44 51 53 53 53 52 49 47 53 55 57 63 62 70 79 82 84
13 25 8 7 12 13 14 12 19 13 23 21 23 25 23 30 31 30 28 27 25 24 22 20 18 15 11 7 1 6 12 19 27 33 39 43 44 45 46 45 50 53 48 40 50 54 61 65 65
12 13 8 7 8 12 8 13 9 25 34 34 34 30 29 33 30 28 27 24 20 18 15 14 13 12 9 8 7 7 10 13 17 20 25 32 37 43 45 47 50 46 47 48 53 55 57 60 62
18 28 34 17 17 8 5 17 1 10 38 45 39 33 35 34 32 28 25 22 17 12 9 5 4 3 5 6 6 6 5 6 9 13 17 19 22 26 31 34 37 42 48 54 58 60 62 64 65
Wind_Direction_850mb
238 215 203 222 229 237 130 137 120 138 154 140 146 179 184 38 302 20 161 167 169 167 165 163 150 142 128 114 110 109 115 115 95 76 82 96 109 102 98 99 100 92 97 101 107 108 112 113 114
207 188 181 205 235 183 135 146 173 127 127 132 139 139 171 99 145 176 153 164 164 166 165 163 153 145 131 117 111 111 115 121 92 84 80 93 105 109 108 103 105 95 92 96 103 106 105 104 104
191 181 194 215 220 164 137 176 145 118 129 155 152 179 141 102 158 153 166 165 163 169 167 162 157 150 140 127 118 113 112 117 109 80 72 83 98 106 103 105 91 88 95 91 92 96 99 100 101
171 154 70 243 163 98 69 152 151 143 153 174 153 149 117 157 138 160 166 167 163 170 171 167 163 157 148 138 130 122 122 119 133 81 68 76 94 104 98 103 101 89 88 97 95 93 94 98 102
177 128 196 162 130 107 131 148 161 163 155 163 168 140 113 187 163 159 168 170 170 170 172 171 167 163 156 150 143 132 132 129 138 119 61 77 94 99 94 112 118 117 112 98 102 96 97 100 102
165 151 193 172 135 129 141 164 161 166 161 152 180 148 128 179 172 166 170 174 174 177 174 176 171 170 165 162 155 145 142 131 155 149 77 78 95 99 96 109 123 119 110 107 110 111 113 113 107
213 207 155 150 137 151 150 161 183 173 172 184 173 162 154 174 172 171 173 178 180 184 181 181 179 175 172 171 166 159 155 150 165 150 97 78 94 99 99 108 119 112 104 107 109 111 118 110 107
187 127 140 163 168 134 148 164 182 175 174 177 169 179 158 185 176 171 175 178 188 191 190 188 187 183 181 180 176 172 170 170 169 166 126 97 104 107 110 117 120 120 113 112 108 108 114 113 105
180 175 166 164 170 142 160 178 159 171 143 181 194 147 179 179 179 177 182 186 191 196 199 197 195 194 190 191 187 183 184 180 181 178 160 151 146 136 133 132 131 129 123 117 113 110 111 114 117
205 194 176 174 166 155 173 187 160 169 167 201 207 210 188 187 187 190 190 191 195 199 201 203 203 203 201 200 199 197 195 195 196 194 191 188 176 163 160 150 147 139 130 129 123 123 127 137 149
155 208 160 183 164 143 164 191 171 179 196 203 212 205 206 193 195 201 204 204 201 203 208 208 208 210 209 209 208 208 206 205 204 204 205 205 201 187 182 172 163 150 139 139 134 132 141 150 156
166 99 128 139 166 146 158 152 187 206 225 171 210 197 215 208 207 212 211 211 209 207 210 214 214 215 215 216 216 217 218 215 213 213 213 213 215 206 197 190 179 170 163 161 155 148 152 150 150
152 142 111 134 143 122 144 153 215 242 232 238 208 208 218 219 220 219 218 218 218 215 211 215 220 220 220 220 220 221 222 223 222 219 219 218 218 217 208 203 196 190 188 185 192 187 188 173 163
137 130 128 137 141 112 163 142 210 216 233 247 243 231 221 223 224 222 220 222 223 223 218 216 218 222 223 226 226 226 227 228 228 225 223 222 221 220 215 211 209 207 206 210 208 213 214 211 198
128 104 130 141 156 105 122 247 224 242 235 257 256 230 226 226 226 229 235 232 232 230 226 222 223 223 225 227 228 230 229 233 235 231 227 224 222 221 216 215 215 217 218 220 227 229 226 225 221
112 129 185 112 179 137 188 246 212 258 246 247 245 231 229 228 232 231 232 237 236 238 234 229 227 229 230 230 230 230 230 233 236 235 230 227 225 222 219 216 217 218 219 224 231 236 240 239 236
165 182 202 173 234 149 218 249 148 192 145 268 258 243 240 238 239 239 239 239 237 239 241 237 233 233 234 234 235 234 231 236 238 239 236 229 228 226 225 223 225 224 231 236 241 244 250 244 244
167 173 190 210 174 204 206 253 236 221 267 259 263 251 238 234 237 243 242 245 243 243 242 242 240 238 237 239 240 238 235 235 238 240 243 241 233 229 229 230 235 236 238 243 244 241 247 247 249
142 145 176 130 85 217 234 264 266 269 271 252 248 249 253 259 257 255 248 249 247 242 239 239 239 236 236 235 239 240 239 237 238 240 243 245 241 236 232 236 237 239 243 245 250 250 251 249 257
153 144 166 80 45 240 293 276 271 253 253 255 254 247 259 265 274 270 261 251 246 244 238 236 238 236 237 238 240 244 246 243 247 242 244 243 245 241 244 242 241 243 245 246 248 253 252 253 249
176 196 177 194 178 132 307 268 276 242 249 261 260 258 252 251 259 261 254 247 236 239 236 235 237 237 236 237 238 238 246 249 243 253 248 244 250 243 244 249 248 246 247 248 250 252 251 253 251
205 203 167 156 152 260 0 287 277 254 277 239 191 145 158 162 159 114 217 242 236 235 236 237 236 238 235 233 230 232 234 236 241 247 249 255 250 251 247 248 256 257 251 249 254 254 254 251 251
206 145 119 87 118 319 187 255 252 348 263 186 166 152 163 147 130 102 91 89 105 201 233 235 231 236 234 230 232 233 235 239 242 247 253 255 254 249 252 255 252 261 259 258 256 256 257 255 253
147 108 74 78 107 251 211 227 228 214 233 149 138 155 156 143 130 112 96 88 84 82 95 185 221 231 230 226 227 231 237 237 241 246 252 253 259 258 255 256 263 260 264 267 268 267 263 262 256
173 157 124 200 203 248 68 209 258 222 198 182 156 150 149 139 130 120 111 103 99 96 92 95 125 188 211 219 223 224 230 233 243 247 251 255 258 260 264 265 265 266 265 272 276 273 276 271 268
180 189 172 193 198 200 92 229 248 116 267 207 141 144 138 132 130 121 111 102 96 91 91 93 97 110 148 195 215 225 229 230 236 243 247 251 254 259 264 264 267 268 275 275 278 273 277 278 272
178 213 128 102 49 229 208 250 264 215 168 151 139 142 135 134 130 122 113 104 93 84 82 80 82 87 100 142 199 217 225 229 231 237 241 247 255 258 258 260 266 269 274 272 274 276 279 281 281
201 143 157 219 192 231 219 254 235 191 183 163 157 153 145 135 130 122 113 102 93 86 76 71 65 58 50 42 347 238 247 250 248 245 243 245 249 253 256 257 262 266 265 271 273 272 280 278 281
155 185 194 192 202 218 238 244 225 208 180 170 164 160 153 141 133 127 120 114 104 98 94 81 72 57 38 14 346 307 282 271 266 263 259 255 253 253 256 257 261 266 267 273 272 273 275 275 276
218 211 187 198 198 252 304 252 200 208 167 166 166 166 160 153 148 141 135 131 130 123 110 101 75 54 16 357 345 339 320 293 278 275 272 267 264 261 262 265 267 269 271 272 273 274 274 275 275